Time,TemperatureF,DewpointF,PressureIn,WindDirection,WindDirectionDegrees,WindSpeedMPH,WindSpeedGustMPH,Humidity,HourlyPrecipIn,Conditions,Clouds,dailyrainin,SoftwareType,DateUTC
2013-05-30 00:02:00,74.0,64.0,-100.00,SW,230,2.0,4.0,72,-99.99,,,-99.99,,2013-05-30 05:02:00,
2013-05-30 00:12:00,73.0,64.0,-100.00,West,275,1.0,2.0,74,-99.99,,,-99.99,,2013-05-30 05:12:00,
2013-05-30 00:22:00,74.0,65.0,-100.00,West,275,2.0,4.0,74,-99.99,,,-99.99,,2013-05-30 05:22:00,
2013-05-30 00:32:00,73.0,65.0,-100.00,West,275,2.0,5.0,76,-99.99,,,-99.99,,2013-05-30 05:32:00,
2013-05-30 00:42:00,73.0,65.0,-100.00,West,275,2.0,5.0,76,-99.99,,,-99.99,,2013-05-30 05:42:00,
2013-05-30 00:52:00,73.0,66.0,-100.00,West,280,4.0,11.0,77,-99.99,,,-99.99,,2013-05-30 05:52:00,
2013-05-30 01:01:00,73.0,66.0,-100.00,West,280,4.0,11.0,77,-99.99,,,-99.99,,2013-05-30 06:01:00,
2013-05-30 01:12:00,74.0,66.0,-100.00,West,270,3.0,9.0,78,-99.99,,,-99.99,,2013-05-30 06:12:00,
2013-05-30 01:22:00,74.0,67.0,-100.00,West,275,7.0,16.0,78,-99.99,,,-99.99,,2013-05-30 06:22:00,
2013-05-30 01:32:00,74.0,67.0,-100.00,West,275,9.0,13.0,78,-99.99,,,-99.99,,2013-05-30 06:32:00,
2013-05-30 01:42:00,74.0,67.0,-100.00,West,275,9.0,13.0,78,-99.99,,,-99.99,,2013-05-30 06:42:00,
2013-05-30 01:52:00,74.0,67.0,-100.00,West,275,7.0,13.0,78,-99.99,,,-99.99,,2013-05-30 06:52:00,
2013-05-30 02:01:00,74.0,67.0,-100.00,West,275,7.0,13.0,78,-99.99,,,-99.99,,2013-05-30 07:01:00,
2013-05-30 02:12:00,74.0,67.0,-100.00,West,280,6.0,11.0,79,-99.99,,,-99.99,,2013-05-30 07:12:00,
2013-05-30 02:22:00,74.0,67.0,-100.00,West,280,7.0,14.0,80,-99.99,,,-99.99,,2013-05-30 07:22:00,
2013-05-30 02:32:00,74.0,67.0,-100.00,West,280,7.0,14.0,80,-99.99,,,-99.99,,2013-05-30 07:32:00,
2013-05-30 02:42:00,73.0,67.0,-100.00,West,270,4.0,12.0,80,-99.99,,,-99.99,,2013-05-30 07:42:00,
2013-05-30 02:52:00,73.0,67.0,-100.00,West,280,4.0,14.0,82,-99.99,,,-99.99,,2013-05-30 07:52:00,
2013-05-30 03:02:00,73.0,67.0,-100.00,West,280,4.0,14.0,82,-99.99,,,-99.99,,2013-05-30 08:02:00,
2013-05-30 03:11:00,73.0,67.0,-100.00,West,270,9.0,14.0,82,-99.99,,,-99.99,,2013-05-30 08:11:00,
2013-05-30 03:21:00,73.0,67.0,-100.00,WNW,285,6.0,16.0,83,-99.99,,,-99.99,,2013-05-30 08:21:00,
2013-05-30 03:32:00,73.0,67.0,-100.00,WNW,285,6.0,16.0,83,-99.99,,,-99.99,,2013-05-30 08:32:00,
2013-05-30 03:42:00,73.0,67.0,-100.00,West,275,9.0,16.0,83,-99.99,,,-99.99,,2013-05-30 08:42:00,
2013-05-30 03:52:00,72.0,67.0,-100.00,West,275,7.0,15.0,84,-99.99,,,-99.99,,2013-05-30 08:52:00,
2013-05-30 04:00:00,72.0,67.0,-100.00,West,275,7.0,17.0,84,-99.99,,,-99.99,,2013-05-30 09:00:00,
2013-05-30 04:01:00,72.0,67.0,-100.00,West,275,7.0,15.0,84,-99.99,,,-99.99,,2013-05-30 09:01:00,
2013-05-30 04:11:00,72.0,67.0,-100.00,West,280,9.0,15.0,84,-99.99,,,-99.99,,2013-05-30 09:11:00,
2013-05-30 04:21:00,72.0,67.0,-100.00,WNW,290,10.0,18.0,84,-99.99,,,-99.99,,2013-05-30 09:21:00,
2013-05-30 04:33:00,72.0,67.0,-100.00,WNW,290,10.0,18.0,84,-99.99,,,-99.99,,2013-05-30 09:33:00,
2013-05-30 04:42:00,72.0,67.0,-100.00,West,275,7.0,17.0,84,-99.99,,,-99.99,,2013-05-30 09:42:00,
2013-05-30 04:53:00,72.0,67.0,-100.00,West,275,7.0,17.0,84,-99.99,,,-99.99,,2013-05-30 09:53:00,
2013-05-30 05:13:00,73.0,67.0,-100.00,WNW,290,8.0,16.0,83,-99.99,,,-99.99,,2013-05-30 10:13:00,
2013-05-30 05:23:00,73.0,67.0,-100.00,West,280,9.0,14.0,82,-99.99,,,-99.99,,2013-05-30 10:23:00,
2013-05-30 05:32:00,73.0,67.0,-100.00,West,280,10.0,16.0,82,-99.99,,,-99.99,,2013-05-30 10:32:00,
2013-05-30 05:42:00,73.0,67.0,-100.00,West,280,10.0,16.0,82,-99.99,,,-99.99,,2013-05-30 10:42:00,
2013-05-30 05:52:00,73.0,67.0,-100.00,WNW,285,8.0,16.0,82,-99.99,,,-99.99,,2013-05-30 10:52:00,
2013-05-30 06:03:00,73.0,67.0,-100.00,WNW,285,8.0,16.0,82,-99.99,,,-99.99,,2013-05-30 11:03:00,
2013-05-30 06:12:00,73.0,67.0,-100.00,West,280,8.0,14.0,83,-99.99,,,-99.99,,2013-05-30 11:12:00,
2013-05-30 06:22:00,72.0,67.0,-100.00,WNW,285,6.0,13.0,83,-99.99,,,-99.99,,2013-05-30 11:22:00,
2013-05-30 06:32:00,72.0,67.0,-100.00,WNW,285,8.0,14.0,83,-99.99,,,-99.99,,2013-05-30 11:32:00,
2013-05-30 06:42:00,72.0,67.0,-100.00,WNW,285,8.0,14.0,83,-99.99,,,-99.99,,2013-05-30 11:42:00,
2013-05-30 06:52:00,72.0,67.0,-100.00,West,280,9.0,19.0,82,-99.99,,,-99.99,,2013-05-30 11:52:00,
2013-05-30 07:01:00,72.0,67.0,-100.00,West,280,9.0,19.0,82,-99.99,,,-99.99,,2013-05-30 12:01:00,
2013-05-30 07:11:00,72.0,66.0,-100.00,WNW,285,11.0,25.0,81,-99.99,,,-99.99,,2013-05-30 12:11:00,
2013-05-30 07:22:00,72.0,65.0,-100.00,WNW,295,9.0,19.0,77,-99.99,,,-99.99,,2013-05-30 12:22:00,
2013-05-30 07:32:00,72.0,65.0,-100.00,WNW,295,9.0,19.0,77,-99.99,,,-99.99,,2013-05-30 12:32:00,
2013-05-30 07:42:00,72.0,64.0,-100.00,WNW,295,8.0,16.0,74,-99.99,,,-99.99,,2013-05-30 12:42:00,
2013-05-30 07:52:00,72.0,64.0,-100.00,WNW,295,8.0,16.0,75,-99.99,,,-99.99,,2013-05-30 12:52:00,
2013-05-30 08:01:00,72.0,64.0,-100.00,WNW,295,8.0,16.0,75,-99.99,,,-99.99,,2013-05-30 13:01:00,
2013-05-30 08:11:00,73.0,64.0,-100.00,WNW,295,7.0,14.0,74,-99.99,,,-99.99,,2013-05-30 13:11:00,
2013-05-30 08:22:00,73.0,64.0,-100.00,WNW,295,6.0,15.0,74,-99.99,,,-99.99,,2013-05-30 13:22:00,
2013-05-30 08:32:00,73.0,64.0,-100.00,WNW,295,6.0,15.0,74,-99.99,,,-99.99,,2013-05-30 13:32:00,
2013-05-30 08:42:00,72.0,64.0,-100.00,WNW,295,6.0,14.0,75,-99.99,,,-99.99,,2013-05-30 13:42:00,
2013-05-30 08:52:00,73.0,64.0,-100.00,WNW,290,5.0,16.0,75,-99.99,,,-99.99,,2013-05-30 13:52:00,
2013-05-30 09:01:00,73.0,64.0,-100.00,WNW,290,5.0,16.0,75,-99.99,,,-99.99,,2013-05-30 14:01:00,
2013-05-30 09:11:00,73.0,64.0,-100.00,WNW,285,10.0,13.0,74,-99.99,,,-99.99,,2013-05-30 14:11:00,
2013-05-30 09:22:00,74.0,65.0,-100.00,WNW,285,9.0,16.0,73,-99.99,,,-99.99,,2013-05-30 14:22:00,
2013-05-30 09:32:00,74.0,64.0,-100.00,West,280,8.0,14.0,72,-99.99,,,-99.99,,2013-05-30 14:32:00,
2013-05-30 09:42:00,74.0,64.0,-100.00,West,280,8.0,14.0,72,-99.99,,,-99.99,,2013-05-30 14:42:00,
2013-05-30 09:50:00,75.0,67.0,-100.00,WNW,285,6.0,23.0,74,-99.99,,,-99.99,,2013-05-30 14:50:00,
2013-05-30 09:52:00,76.0,66.0,-100.00,WNW,285,15.0,26.0,72,-99.99,,,-99.99,,2013-05-30 14:52:00,
2013-05-30 10:01:00,76.0,66.0,-100.00,WNW,285,15.0,26.0,72,-99.99,,,-99.99,,2013-05-30 15:01:00,
2013-05-30 10:11:00,76.0,67.0,-100.00,WNW,285,13.0,24.0,72,-99.99,,,-99.99,,2013-05-30 15:11:00,
2013-05-30 10:22:00,75.0,67.0,-100.00,WNW,285,6.0,23.0,74,-99.99,,,-99.99,,2013-05-30 15:22:00,
2013-05-30 10:33:00,75.0,67.0,-100.00,WNW,285,6.0,23.0,74,-99.99,,,-99.99,,2013-05-30 15:33:00,
2013-05-30 10:42:00,75.0,67.0,-100.00,WNW,285,6.0,23.0,74,-99.99,,,-99.99,,2013-05-30 15:42:00,
2013-05-30 11:53:00,78.0,66.0,-100.00,West,275,12.0,26.0,66,-99.99,,,-99.99,,2013-05-30 16:53:00,
2013-05-30 12:02:00,78.0,66.0,-100.00,West,275,12.0,26.0,66,-99.99,,,-99.99,,2013-05-30 17:02:00,
2013-05-30 12:12:00,79.0,66.0,-100.00,WNW,290,14.0,26.0,65,-99.99,,,-99.99,,2013-05-30 17:12:00,
2013-05-30 12:22:00,80.0,67.0,-100.00,WNW,285,13.0,22.0,64,-99.99,,,-99.99,,2013-05-30 17:22:00,
2013-05-30 12:32:00,79.0,66.0,-100.00,WNW,290,17.0,26.0,64,-99.99,,,-99.99,,2013-05-30 17:32:00,
2013-05-30 12:42:00,79.0,66.0,-100.00,WNW,290,17.0,26.0,64,-99.99,,,-99.99,,2013-05-30 17:42:00,
2013-05-30 12:52:00,80.0,67.0,-100.00,WNW,290,14.0,32.0,64,-99.99,,,-99.99,,2013-05-30 17:52:00,
2013-05-30 13:02:00,80.0,67.0,-100.00,WNW,290,14.0,32.0,64,-99.99,,,-99.99,,2013-05-30 18:02:00,
2013-05-30 13:11:00,81.0,67.0,-100.00,WNW,290,14.0,33.0,63,-99.99,,,-99.99,,2013-05-30 18:11:00,
2013-05-30 13:22:00,81.0,66.0,-100.00,WNW,290,14.0,29.0,61,-99.99,,,-99.99,,2013-05-30 18:22:00,
2013-05-30 13:32:00,82.0,67.0,-100.00,WNW,295,12.0,23.0,61,-99.99,,,-99.99,,2013-05-30 18:32:00,
2013-05-30 13:42:00,82.0,67.0,-100.00,WNW,295,12.0,23.0,61,-99.99,,,-99.99,,2013-05-30 18:42:00,
2013-05-30 13:51:00,81.0,66.0,-100.00,WNW,285,14.0,29.0,61,-99.99,,,-99.99,,2013-05-30 18:51:00,
2013-05-30 14:01:00,81.0,66.0,-100.00,WNW,285,14.0,29.0,61,-99.99,,,-99.99,,2013-05-30 19:01:00,
2013-05-30 14:12:00,81.0,67.0,-100.00,West,280,17.0,25.0,61,-99.99,,,-99.99,,2013-05-30 19:12:00,
2013-05-30 14:23:00,83.0,69.0,-100.00,West,275,12.0,29.0,62,-99.99,,,-99.99,,2013-05-30 19:23:00,
2013-05-30 14:32:00,83.0,68.0,-100.00,West,275,17.0,26.0,61,-99.99,,,-99.99,,2013-05-30 19:32:00,
2013-05-30 14:42:00,83.0,68.0,-100.00,West,275,17.0,26.0,61,-99.99,,,-99.99,,2013-05-30 19:42:00,
2013-05-30 14:52:00,82.0,67.0,-100.00,West,280,19.0,34.0,60,-99.99,,,-99.99,,2013-05-30 19:52:00,
2013-05-30 15:01:00,82.0,67.0,-100.00,West,280,19.0,34.0,60,-99.99,,,-99.99,,2013-05-30 20:01:00,
2013-05-30 15:11:00,83.0,67.0,-100.00,WNW,290,17.0,34.0,60,-99.99,,,-99.99,,2013-05-30 20:11:00,
2013-05-30 15:22:00,81.0,68.0,-100.00,WNW,290,14.0,24.0,63,-99.99,,,-99.99,,2013-05-30 20:22:00,
2013-05-30 15:33:00,81.0,68.0,-100.00,WNW,290,16.0,29.0,63,-99.99,,,-99.99,,2013-05-30 20:33:00,
2013-05-30 15:42:00,81.0,68.0,-100.00,WNW,290,16.0,29.0,63,-99.99,,,-99.99,,2013-05-30 20:42:00,
2013-05-30 15:52:00,81.0,68.0,-100.00,West,275,11.0,33.0,64,-99.99,,,-99.99,,2013-05-30 20:52:00,
2013-05-30 16:01:00,80.0,67.0,-100.00,West,280,17.0,33.0,66,-99.99,,,-99.99,,2013-05-30 21:01:00,
2013-05-30 16:11:00,80.0,67.0,-100.00,West,280,17.0,33.0,66,-99.99,,,-99.99,,2013-05-30 21:11:00,
2013-05-30 16:22:00,78.0,68.0,-100.00,WNW,285,14.0,29.0,70,-99.99,,,-99.99,,2013-05-30 21:22:00,
2013-05-30 16:33:00,79.0,68.0,-100.00,West,275,14.0,28.0,68,-99.99,,,-99.99,,2013-05-30 21:33:00,
2013-05-30 16:43:00,79.0,68.0,-100.00,West,275,14.0,28.0,68,-99.99,,,-99.99,,2013-05-30 21:43:00,
2013-05-30 16:53:00,77.0,68.0,-100.00,WNW,295,18.0,26.0,72,-99.99,,,-99.99,,2013-05-30 21:53:00,
2013-05-30 17:02:00,77.0,68.0,-100.00,WNW,295,18.0,26.0,72,-99.99,,,-99.99,,2013-05-30 22:02:00,
2013-05-30 17:12:00,77.0,66.0,-100.00,West,275,12.0,29.0,69,-99.99,,,-99.99,,2013-05-30 22:12:00,
2013-05-30 17:23:00,77.0,65.0,-100.00,WNW,285,11.0,21.0,66,-99.99,,,-99.99,,2013-05-30 22:23:00,
2013-05-30 17:33:00,76.0,63.0,-100.00,WNW,295,14.0,25.0,65,-99.99,,,-99.99,,2013-05-30 22:33:00,
2013-05-30 17:42:00,76.0,63.0,-100.00,WNW,295,14.0,25.0,65,-99.99,,,-99.99,,2013-05-30 22:42:00,
2013-05-30 17:52:00,75.0,64.0,-100.00,WNW,290,7.0,20.0,68,-99.99,,,-99.99,,2013-05-30 22:52:00,
2013-05-30 18:02:00,75.0,64.0,-100.00,WNW,290,7.0,20.0,68,-99.99,,,-99.99,,2013-05-30 23:02:00,
2013-05-30 18:11:00,74.0,64.0,-100.00,WNW,295,7.0,16.0,71,-99.99,,,-99.99,,2013-05-30 23:11:00,
2013-05-30 18:22:00,74.0,64.0,-100.00,West,275,6.0,12.0,72,-99.99,,,-99.99,,2013-05-30 23:22:00,
2013-05-30 18:32:00,74.0,64.0,-100.00,West,275,6.0,12.0,72,-99.99,,,-99.99,,2013-05-30 23:32:00,
2013-05-30 18:41:00,74.0,64.0,-100.00,West,275,6.0,12.0,72,-99.99,,,-99.99,,2013-05-30 23:41:00,
2013-05-30 18:52:00,71.0,63.0,-100.00,NW,315,7.0,12.0,76,-99.99,,,-99.99,,2013-05-30 23:52:00,
2013-05-30 19:01:00,71.0,63.0,-100.00,NW,315,7.0,12.0,76,-99.99,,,-99.99,,2013-05-31 00:01:00,
2013-05-30 19:11:00,69.0,62.0,-100.00,NW,320,6.0,11.0,78,-99.99,,,-99.99,,2013-05-31 00:11:00,
2013-05-30 19:22:00,64.0,63.0,-100.00,NW,320,7.0,15.0,96,-99.99,,,-99.99,,2013-05-31 00:22:00,
2013-05-30 19:32:00,64.0,63.0,-100.00,NW,315,5.0,9.0,98,-99.99,,,-99.99,,2013-05-31 00:32:00,
2013-05-30 19:42:00,64.0,63.0,-100.00,NW,315,5.0,9.0,98,-99.99,,,-99.99,,2013-05-31 00:42:00,
2013-05-30 19:52:00,63.0,63.0,-100.00,WNW,295,4.0,17.0,99,-99.99,,,-99.99,,2013-05-31 00:52:00,
2013-05-30 20:01:00,63.0,63.0,-100.00,WNW,295,4.0,17.0,99,-99.99,,,-99.99,,2013-05-31 01:01:00,
2013-05-30 20:12:00,63.0,62.0,-100.00,NW,325,3.0,6.0,99,-99.99,,,-99.99,,2013-05-31 01:12:00,
2013-05-30 20:21:00,63.0,63.0,-100.00,West,260,5.0,10.0,99,-99.99,,,-99.99,,2013-05-31 01:21:00,
2013-05-30 20:32:00,63.0,-99.9,-100.00,South,180,5.0,7.0,-999,-99.99,,,-99.99,,2013-05-31 01:32:00,
2013-05-30 20:42:00,63.0,-99.9,-100.00,South,180,5.0,7.0,-999,-99.99,,,-99.99,,2013-05-31 01:42:00,
2013-05-30 20:52:00,63.0,-99.9,-100.00,WNW,295,4.0,8.0,-999,-99.99,,,-99.99,,2013-05-31 01:52:00,
2013-05-30 21:02:00,63.0,-99.9,-100.00,WNW,295,4.0,8.0,-999,-99.99,,,-99.99,,2013-05-31 02:02:00,
2013-05-30 21:11:00,63.0,-99.9,-100.00,West,270,5.0,11.0,-999,-99.99,,,-99.99,,2013-05-31 02:11:00,
2013-05-30 21:22:00,63.0,-99.9,-100.00,WSW,255,3.0,9.0,-999,-99.99,,,-99.99,,2013-05-31 02:22:00,
2013-05-30 21:32:00,63.0,-99.9,-100.00,West,270,5.0,11.0,-999,-99.99,,,-99.99,,2013-05-31 02:32:00,
2013-05-30 21:42:00,63.0,-99.9,-100.00,West,270,5.0,11.0,-999,-99.99,,,-99.99,,2013-05-31 02:42:00,
2013-05-30 21:52:00,63.0,-99.9,-100.00,West,270,9.0,14.0,-999,-99.99,,,-99.99,,2013-05-31 02:52:00,
2013-05-30 22:02:00,63.0,-99.9,-100.00,West,270,9.0,14.0,-999,-99.99,,,-99.99,,2013-05-31 03:02:00,
2013-05-30 22:11:00,63.0,-99.9,-100.00,WSW,240,8.0,19.0,-999,-99.99,,,-99.99,,2013-05-31 03:11:00,
2013-05-30 22:22:00,63.0,-99.9,-100.00,West,280,3.0,9.0,-999,-99.99,,,-99.99,,2013-05-31 03:22:00,
2013-05-30 22:33:00,63.0,-99.9,-100.00,WSW,255,2.0,7.0,-999,-99.99,,,-99.99,,2013-05-31 03:33:00,
2013-05-30 22:43:00,63.0,-99.9,-100.00,WSW,255,2.0,7.0,-999,-99.99,,,-99.99,,2013-05-31 03:43:00,
2013-05-30 22:54:00,63.0,-99.9,-100.00,West,275,7.0,18.0,-999,-99.99,,,-99.99,,2013-05-31 03:54:00,
2013-05-30 23:00:00,64.0,64.0,-100.00,WNW,290,6.0,14.0,99,-99.99,,,-99.99,,2013-05-31 04:00:00,
2013-05-30 23:03:00,63.0,-99.9,-100.00,West,275,7.0,18.0,-999,-99.99,,,-99.99,,2013-05-31 04:03:00,
2013-05-30 23:12:00,63.0,-99.9,-100.00,West,280,9.0,13.0,-999,-99.99,,,-99.99,,2013-05-31 04:12:00,
2013-05-30 23:22:00,63.0,63.0,-100.00,West,270,6.0,13.0,99,-99.99,,,-99.99,,2013-05-31 04:22:00,
2013-05-30 23:33:00,64.0,64.0,-100.00,WNW,290,6.0,14.0,99,-99.99,,,-99.99,,2013-05-31 04:33:00,
2013-05-30 23:42:00,64.0,64.0,-100.00,WNW,290,6.0,14.0,99,-99.99,,,-99.99,,2013-05-31 04:42:00,
2013-05-30 23:53:00,64.0,64.0,-100.00,WNW,290,6.0,14.0,99,-99.99,,,-99.99,,2013-05-31 04:53:00,